ED2YAA-3 Weather Reports


time (UTC)temp
F
wind
direction
speed
knots
gust
knots
rain 1hr
in
rain 24hr
in
rain mn
in
humidity
%
barometer
mb
20260507050300 48 90 0.0 0.0 0.00 0.00 0.00 85 993.0
20260507043519 49 90 0.0 0.0 0.00 0.00 0.00 85 993.1
20260507040302 49 90 0.0 0.0 0.00 0.00 0.00 85 993.1
20260507033519 49 90 0.0 0.0 0.00 0.00 0.00 85 993.2
20260507030300 50 90 0.0 0.0 0.00 0.00 0.00 86 993.2
20260507023519 50 90 0.0 0.0 0.00 0.00 0.00 85 993.2
20260507020300 50 90 0.0 0.0 0.00 0.00 0.00 85 993.4
20260507013519 51 0 0.0 0.0 0.00 0.00 0.00 85 993.5
20260507010300 51 0 0.0 0.0 0.00 0.00 0.00 85 993.6
20260507003518 51 0 0.0 0.0 0.00 0.00 0.00 85 993.7
20260507000301 51 0 0.0 0.0 0.00 0.00 0.00 85 994.1
20260506233518 51 0 0.0 0.0 0.00 0.00 0.00 85 994.1
20260506230301 51 0 0.0 0.0 0.00 0.00 0.00 85 994.2
20260506224454 51 0 0.0 0.0 0.00 0.00 0.00 85 994.2
20260506223518 51 0 0.0 0.0 0.00 0.00 0.00 86 994.3
20260506214454 50 0 0.0 0.0 0.00 0.00 0.00 85 994.3
20260506213518 51 0 0.0 0.0 0.00 0.00 0.00 85 994.2
20260506204454 52 0 0.0 0.0 0.00 0.00 0.00 84 994.2
20260506203518 52 0 0.0 0.0 0.00 0.00 0.00 84 994.2
20260506194454 54 0 0.0 0.0 0.00 0.00 0.00 82 993.7
20260506193518 54 0 0.0 0.0 0.00 0.00 0.00 81 993.6
20260506184454 57 0 0.0 0.0 0.00 0.00 0.00 78 993.3
20260506183518 57 0 0.0 0.0 0.00 0.00 0.00 77 993.1
20260506174454 58 161 0.0 1.7 0.00 0.00 0.00 75 993.3
20260506173518 59 158 0.0 0.0 0.00 0.00 0.00 75 993.3
20260506164454 59 158 0.0 0.0 0.00 0.00 0.00 78 993.5
20260506163518 58 158 0.0 0.0 0.00 0.00 0.00 79 993.4
20260506154454 59 158 0.0 0.0 0.00 0.00 0.00 76 993.8
20260506153520 59 166 0.0 2.6 0.00 0.00 0.00 75 993.8
20260506144454 62 112 0.0 0.0 0.00 0.00 0.00 70 993.8
20260506143519 63 112 0.0 0.0 0.00 0.00 0.00 69 993.9
20260506134453 61 135 0.0 0.0 0.00 0.00 0.00 69 994.4
20260506133517 62 135 0.0 0.0 0.00 0.00 0.00 67 994.3
20260506124452 63 338 0.0 0.0 0.00 0.00 0.00 61 993.7
20260506123518 64 322 0.0 0.0 0.00 0.00 0.00 60 993.7
20260506114453 63 2 0.0 0.0 0.00 0.00 0.00 64 993.9
20260506113517 62 0 0.0 0.0 0.00 0.00 0.00 63 993.9
20260506104453 67 354 0.0 0.0 0.00 0.00 0.00 56 993.6
20260506103517 67 0 0.0 0.0 0.00 0.00 0.00 58 993.6
20260506094452 65 90 0.0 0.0 0.00 0.00 0.00 63 993.9
20260506093516 64 90 0.0 0.0 0.00 0.00 0.00 63 993.7
20260506084454 68 68 0.0 0.0 0.00 0.00 0.00 64 993.6
20260506083518 68 68 0.0 0.0 0.00 0.00 0.00 64 993.6
20260506073516 60 22 0.0 0.0 0.00 0.00 0.00 77 993.7
20260506070321 54 68 0.0 0.0 0.00 0.00 0.00 84 993.7
20260506060321 50 112 0.0 0.0 0.00 0.00 0.00 88 993.3